Location: 22
(39.7117°N, 89.5929°W)
Time: 05:26:25
(UTC-05:00)

Vanguard 1 Rocket - Pass Details

Date: 08 February 2023
Orbit: 652 x 4223 km, 34.3° (Epoch: 26 March)

Event Time Altitude Azimuth Distance (km) Brightness Sun altitude
Rises 10:21:33 0° 228° (SW) 3,589 10.6 29.6°
Reaches altitude 10° 10:23:45 10° 220° (SW) 2,889 10.3 29.8°
Maximum altitude 10:30:25 44° 150° (SSE) 2,041 11.3 30.4°
Drops below altitude 10° 10:42:44 10° 85° (E) 5,252 11.6 31.5°
Sets 10:48:19 0° 81° (E) 6,868 12.0 32.0°
